Tobias Bolanos Internatio, Costa Rica

12:59 PM CST on September 25, 2016 (GMT -0600)
Tobias Bolanos International

Weather History for MRPV - June, 2014

Change the Weather History Date:

Tuesday, June 24, 2014

  Actual Average Record
Temperature  
Mean Temperature 72 °F -  
Max Temperature 79 °F 78 °F 86 °F (2006)
Min Temperature 66 °F 68 °F 66 °F (2003)
Cooling Degree Days 8    
Growing Degree Days 22 (Base 50)    
Moisture  
Dew Point 62 °F    
Average Humidity 64    
Maximum Humidity 83    
Minimum Humidity 48    
Precipitation  
Precipitation 0.04 in - - ()
Sea Level Pressure  
Sea Level Pressure 30.04 in    
Wind  
Wind Speed 10 mph ()    
Max Wind Speed 18 mph    
Max Gust Speed 25 mph    
Visibility 6.1 miles    
Events Rain    
Averages and records for this station are not official NWS values.
T = Trace of Precipitation, MM = Missing Value Source: Averaged Metar Reports

Daily Weather History Graph

Daily Weather History Graph

Search for Another Location

Airport or City:

Trip Planner

Search our weather history database for the weather conditions in past years. The results will help you decide how hot, cold, wet, or windy it might be!

Date:

Astronomy

Jun. 24, 2014 Rise Set
Actual Time 5:17 AM CST 6:00 PM CST
Civil Twilight 4:54 AM CST 6:23 PM CST
Nautical Twilight 4:27 AM CST 6:50 PM CST
Astronomical Twilight 4:00 AM CST 7:17 PM CST
Moon 3:04 AM CST (6/24) 3:54 PM CST (6/24)
Length of Visible Light 13h 28m
Length of Day
12h 42m
Waning Crescent, 6% of the Moon is Illuminated
Jun 24
Waning Crescent
Jun 27
New
Jul 5
First Quarter
Jul 12
Full
Jul 18
Last Quarter

Hourly Weather History & Observations

Time (CST) Temp. Dew Point Humidity Pressure Visibility Wind Dir Wind Speed Gust Speed Precip Events Conditions
6:00 AM 69 °F 58 °F 60% 29.92 in 6 mi SE 5.8 mph - -   Overcast
6:00 AM 69.8 °F 59.0 °F 68% 30.06 in - SE 5.8 mph - N/A   Clear
7:00 AM 71.6 °F 60.8 °F 69% 30.08 in - SE 8.1 mph - N/A   Clear
8:00 AM 75.2 °F 60.8 °F 61% 30.08 in - ESE 8.1 mph - N/A   Clear
9:00 AM 79 °F 63 °F 48% 29.95 in 6 mi East 13.8 mph - -   Overcast
9:00 AM 78.8 °F 62.6 °F 57% 30.10 in - East 15.0 mph - N/A   Clear
10:00 AM 77.0 °F 62.6 °F 61% 30.09 in - ENE 13.8 mph - N/A   Clear
11:00 AM 78.8 °F 62.6 °F 57% 30.08 in - East 16.1 mph - N/A   Clear
12:00 PM 77 °F 63 °F 53% 29.91 in 6 mi East 12.7 mph - -   Overcast
12:00 PM 77.0 °F 62.6 °F 61% 30.08 in 6.2 mi East 12.7 mph - N/A   Mostly Cloudy
1:00 PM 78.8 °F 64.4 °F 61% 30.07 in 6.2 mi East 13.8 mph - N/A   Mostly Cloudy
2:00 PM 75.2 °F 66.2 °F 73% 30.05 in 6.2 mi East 13.8 mph 25.3 mph N/A Rain Light Rain
3:00 PM 73 °F 60 °F 55% 29.90 in 6 mi East 18.4 mph - -   Overcast
3:00 PM 73.4 °F 60.8 °F 65% 30.06 in 6.2 mi East 18.4 mph - N/A   Mostly Cloudy
3:20 PM 71.6 °F 62.6 °F 73% 30.07 in 6.2 mi East 16.1 mph - N/A Rain Rain
4:00 PM 69.8 °F 60.8 °F 73% 30.08 in 6.2 mi East 15.0 mph - N/A Rain Rain
5:00 PM 69.8 °F 62.6 °F 78% 30.10 in 6.2 mi ESE 8.1 mph - N/A   Mostly Cloudy
6:00 PM - - % 29.91 in 6 mi ESE 10.4 mph - -   Overcast
6:00 PM 68.0 °F 62.6 °F 83% 30.11 in 6.2 mi ESE 11.5 mph - N/A   Mostly Cloudy